Погода в Васаи-Вирар

Индия     19°27′28″N   72°48′15″E
темп.,
°C
ветер,
м/с
пор.,
м/с
влажн.,
%
обл.,
%
осадки,
мм/ч
давл.,
гПа
погр.,
м
9 мая, вс
вс923:30+30з33710 0.0 1008290
02:30+29зюз22694 0.0 1006336
05:30+29з12700 0.0 1007324
08:30+30зсз22630 0.0 1009627
11:30+33з53530 0.0 1008859
14:30+32з55530 0.0 1006657
17:30+31з67620 0.0 1005555
20:30+30зюз45670 0.0 1007482
10 мая, пн
пн1023:30+30юз34660 0.0 1007441
02:30+29зсз34690 0.0 1006482
05:30+28сз23720 0.0 1007495
08:30+30сз22640 0.0 1008667
11:30+32зсз64540 0.0 1008888
14:30+32зсз65520 0.0 1006690
17:30+31з55560 0.0 1005589
20:30+30зюз45653 0.0 1006422
11 мая, вт
вт1123:30+29з34670 0.0 1007503
02:30+28з34700 0.0 1006551
05:30+28зсз23724 0.0 1007523
08:30+29з33659 0.0 1009948
11:30+31з54605 0.0 1009918
14:30+31з55585 0.0 1006868
17:30+30з566321 0.0 1005809
20:30+29зюз56673 0.0 1007640
12 мая, ср
ср1223:30+29з447024 0.0 1008636
02:30+28з347211 0.1 1006645
05:30+28з23707 0.1 1007586
08:30+29зюз22620 0.0 10081058
11:30+31зюз54551 0.0 10071029
14:30+31з65560 0.0 1005962
17:30+31з56610 0.0 1004937
20:30+29з566992 0.0 1005753
13 мая, чт
чт1323:30+29з457198 0.0 1005630
02:30+28зюз347161 0.0 1005638
05:30+28юз336910 0.0 1005584
08:30+30юз44639 0.0 10071173
11:30+31зюз54560 0.0 10071234
14:30+32з555396 0.0 10051129
17:30+31з555874 0.0 10041077
20:30+30з456591 0.0 1005647